Regional Weather Roundup
Issued by NWS

Home | Current Version | Previous Version | Text Only | Print | Product List | Glossary Off
Versions: 1 2 3 4 5 6 7 8 9 10 11 12 13 14 15 16 17 18 19 20 21 22 23 24 25 26 27 28 29 30 31 32 33 34 35 36 37 38 39 40 41 42 43 44 45 46 47 48 49 50

000
ASUS45 KSLC 271410
RWRUT

UTAH REGIONAL WEATHER ROUNDUP
NATIONAL WEATHER SERVICE SALT LAKE CITY UT
700 AM MST TUE JAN 27 2015

UTZ001>011-023>025-271500-

NORTHERN UTAH

CITY           SKY/WX    TMP DP  RH WIND       PRES   REMARKS
BRIGHAM CITY   PTCLDY    30  28  92 CALM      30.19R
HILL AFB       MOCLDY    37  25  63 E15       30.17R WCI  27
LOGAN          CLEAR     26  23  88 CALM      30.19R
OGDEN          PTCLDY    30  28  92 SW6       30.18R WCI  24
PROVO AIRPORT  CLEAR     27  23  86 CALM      30.21R
SALT LAKE CITY PTCLDY    30  28  92 W5        30.18R FOG     WCI  25
VERNAL         PTCLDY    21  18  88 W3        30.33R
WENDOVER       MOCLDY    30  27  86 NW3       30.20R
HEBER CITY     PTCLDY    25  23  93 CALM      30.23R
WEST JORDAN    CLEAR     32  30  93 CALM      30.18S

$$

UTZ012>022-026-027-271500-

SOUTHERN/CENTRAL UTAH

CITY           SKY/WX    TMP DP  RH WIND       PRES   REMARKS
BLANDING       PTCLDY    31  25  78 W3        30.40R
BRYCE CANYON   LGT SNOW  31  31 100 CALM      30.32R VSB 1
CEDAR CITY     CLOUDY    38  35  89 SW8       30.25S WCI  32
DELTA          CLOUDY    33  32  95 S7        30.23R WCI  27
MILFORD        LGT RAIN  38  35  89 S12       30.26R WCI  30
MOAB/CYNLANDS  CLEAR     26  24  92 CALM      30.28R
PRICE          MOCLDY    30  22  72 N6        30.28R WCI  24
ST GEORGE      CLOUDY    46  41  81 SW6       30.28R
KANAB            N/A     41  39  93 NW8       30.33R

$$

REGIONAL REPORTS     COLORADO/ARIZONA

CITY           SKY/WX    TMP DP  RH WIND       PRES   REMARKS
CRAIG, CO      NOT AVBL
GRAND JUNCTION MOCLDY    27  24  89 E6        30.30R WCI  20
RIFLE          PTCLDY    27  21  78 CALM      30.34R
MONTROSE       MOCLDY    30  23  75 SE5       30.34R WCI  25
CORTEZ         CLEAR     24  20  84 E5        30.33R WCI  18
PAGE, AZ       NOT AVBL
GRAND CANYON   LGT RAIN  39  38  96 CALM      30.32R
KINGMAN        MOCLDY    46  42  86 SE9       30.24R
FLAGSTAFF      MOCLDY    36  35  96 SW7       30.33R WCI  30

$$

REGIONAL REPORTS    NEVADA/IDAHO/WYOMING

CITY           SKY/WX    TMP DP  RH WIND       PRES   REMARKS
LAS VEGAS, NV  MOCLDY    51  49  92 S5        30.19R
ELY            LGT RAIN  36  34  92 S14       30.22R WCI  27
ELKO           CLOUDY    33  27  78 E8        30.13R WCI  26
POCATELLO, ID  CLEAR     26  26 100 CALM      30.14R
BURLEY         MOCLDY    34  30  85 E8        30.07S WCI  27
EVANSTON, WY   MOCLDY    35  24  64 E9        30.23S WCI  28
ROCK SPRINGS   CLEAR     28  22  78 N5        30.24R WCI  23

$$


USA.gov is the U.S. government's official web portal to all federal, state and local government web resources and services.